Belleville, IL

4:41 AM CDT on August 22, 2017 (GMT -0500)
Scott Air Force Base-Midamerica

Weather History for KBLV - September, 2013

Change the Weather History Date:

Tuesday, September 3, 2013

  Actual Average Record
Temperature  
Mean Temperature 70 °F -  
Max Temperature 82 °F 85 °F 98 °F (2011)
Min Temperature 59 °F 61 °F 44 °F (1967)
Cooling Degree Days 6    
Growing Degree Days 20 (Base 50)    
Moisture  
Dew Point 61 °F    
Average Humidity 74    
Maximum Humidity 96    
Minimum Humidity 49    
Precipitation  
Precipitation 0.00 in - - ()
Sea Level Pressure  
Sea Level Pressure 30.03 in    
Wind  
Wind Speed 3 mph (NNE)    
Max Wind Speed 8 mph    
Max Gust Speed -    
Visibility 10 miles    
Events      
Averages and records for this station are not official NWS values.
T = Trace of Precipitation, MM = Missing Value Source: NWS Daily Summary

Daily Weather History Graph

Daily Weather History Graph

Search for Another Location

Airport or City:

Trip Planner

Search our weather history database for the weather conditions in past years. The results will help you decide how hot, cold, wet, or windy it might be!

Date:

Astronomy

Sep. 03, 2013 Rise Set
Actual Time 6:30 AM CDT 7:25 PM CDT
Civil Twilight 6:03 AM CDT 7:52 PM CDT
Nautical Twilight 5:31 AM CDT 8:24 PM CDT
Astronomical Twilight 4:58 AM CDT 8:58 PM CDT
Moon 4:45 AM CDT (9/3) 6:12 PM CDT (9/3)
Length of Visible Light 13h 49m
Length of Day
12h 55m
Waning Crescent, 3% of the Moon is Illuminated
Sep 3
Waning Crescent
Sep 5
New
Sep 12
First Quarter
Sep 19
Full
Sep 26
Last Quarter

Hourly Weather History & Observations

Time (CDT) Temp. Heat Index Dew Point Humidity Pressure Visibility Wind Dir Wind Speed Gust Speed Precip Events Conditions
12:58 AM 65.7 °F - 60.8 °F 84% 29.97 in 10.0 mi NNW 3.5 mph - N/A   Clear
1:58 AM 64.0 °F - 59.0 °F 84% 29.98 in 10.0 mi North 3.5 mph - N/A   Clear
2:58 AM 63.7 °F - 57.7 °F 81% 29.99 in 10.0 mi North 2.3 mph - N/A   Clear
3:58 AM 61.5 °F - 57.2 °F 86% 30.00 in 10.0 mi North 4.6 mph - N/A   Clear
4:58 AM 60.1 °F - 56.5 °F 88% 30.01 in 10.0 mi North 2.3 mph - N/A   Clear
5:58 AM 59.9 °F - 56.8 °F 90% 30.03 in 10.0 mi North 1.2 mph - N/A   Clear
6:58 AM 59.2 °F - 57.9 °F 96% 30.04 in 10.0 mi Calm Calm - N/A   Clear
7:58 AM 63.5 °F - 60.8 °F 91% 30.06 in 10.0 mi Variable 3.5 mph - N/A   Clear
8:58 AM 68.2 °F - 63.3 °F 84% 30.07 in 10.0 mi Variable 2.3 mph - N/A   Clear
9:58 AM 71.2 °F - 64.2 °F 78% 30.07 in 10.0 mi East 3.5 mph - N/A   Clear
10:58 AM 73.6 °F - 64.6 °F 73% 30.08 in 10.0 mi Variable 1.2 mph - N/A   Clear
11:58 AM 76.8 °F - 64.2 °F 65% 30.07 in 10.0 mi NE 8.1 mph - N/A   Clear
12:58 PM 76.8 °F - 61.2 °F 58% 30.06 in 10.0 mi Variable 2.3 mph - N/A   Clear
1:58 PM 79.7 °F - 59.9 °F 51% 30.05 in 10.0 mi Variable 2.3 mph - N/A   Partly Cloudy
2:58 PM 80.6 °F 81.4 °F 60.3 °F 50% 30.03 in 10.0 mi Variable 4.6 mph - N/A   Clear
3:58 PM 82.0 °F 82.7 °F 61.0 °F 49% 30.02 in 10.0 mi Variable 3.5 mph - N/A   Clear
4:58 PM 81.5 °F 82.1 °F 60.8 °F 49% 30.01 in 10.0 mi Variable 4.6 mph - N/A   Clear
5:58 PM 81.5 °F 82.1 °F 60.6 °F 49% 30.01 in 10.0 mi North 3.5 mph - N/A   Clear
6:58 PM 78.8 °F - 61.2 °F 55% 30.01 in 10.0 mi NNE 2.3 mph - N/A   Clear
7:58 PM 72.7 °F - 61.5 °F 68% 30.02 in 10.0 mi NNE 3.5 mph - N/A   Clear
8:58 PM 69.1 °F - 61.5 °F 77% 30.04 in 10.0 mi NNE 3.5 mph - N/A   Clear
9:58 PM 66.2 °F - 61.3 °F 84% 30.04 in 10.0 mi NE 3.5 mph - N/A   Clear
10:58 PM 64.6 °F - 61.9 °F 91% 30.06 in 10.0 mi Calm Calm - N/A   Clear
11:58 PM 63.0 °F - 61.9 °F 96% 30.07 in 10.0 mi Calm Calm - N/A   Clear